Location: *
(49.0044°N, 9.5056°E)
Time: 05:49:07
(UTC+00:00)

Lacrosse 5 rocket - Pass Details

Date: 22 September 2019
Orbit: 459 x 639 km, 57.0° (Epoch: 15 October)

Event Time Altitude Azimuth Distance (km) Brightness Sun altitude
Rises 18:29:19 0° 213° (SSW) 2,478 4.9 -11.9°
Reaches altitude 10° 18:31:29 10° 205° (SSW) 1,619 3.8 -12.3°
Maximum altitude 18:34:53 40° 135° (SE) 721 1.5 -12.8°
Enters shadow 18:37:14 18° 74° (ENE) 1,245 2.6 -13.2°
